Flag for Germany Weather past 2 weeks in Schwerte, North Rhine-Westphalia, Germany

Now
54 °F

Clear.


Feels Like: 51 °F
Forecast: 52 / 62 °F
Wind: 8 mph from South

Location: Dortmund / Wickede

Current Time: Apr 25, 2015 at 2:29:12 AM

Latest Report: Apr 24, 2015 at 10:50 PM


Visibility: 10 mi

Pressure: 29.80 "Hg

Humidity: 58%

Dew point: 39 °F

Location of SchwerteLocation

Historic Weather in Schwerte — Graph

°F

Schwerte temperature yesterday

Maximum temperature yesterday: 70 °F (at 3:50 PM)
Minimum temperature yesterday: 41 °F (at 5:50 AM)
Average temperature yesterday: 59 °F

Past Weeks' High & Low Weather Summary

 TemperatureHumidityPressure
High73 °F (Apr 15, 4:20 PM)93% (Apr 16, 8:20 AM)30.45 "Hg (Apr 16, 8:20 AM)
Low34 °F (Apr 18, 5:20 AM)18% (Apr 21, 4:50 PM)29.80 "Hg (Apr 24, 9:50 PM)
Average53 °F56%30.18 "Hg
* Reported Apr 9 10:20 PM — Apr 24 10:50 PM, Schwerte, Weather by CustomWeather, © 2015

Note: Actual official high and low records may vary slightly from our data, if they occured in-between our weather recording intervals... More about our weather records

Advertising

Schwerte weather history for previous 24 hours

 ConditionsComfort  
Time TempWeatherWind HumidityBarometerVisibility
10:50 PM
Fri, Apr 24
54 °FClear.8 mph58%29.80 "Hg10 mi
10:20 PM55 °FClear.8 mph51%29.80 "Hg10 mi
9:50 PM57 °FClear.7 mph48%29.80 "Hg10 mi
9:20 PM59 °FSunny.6 mph45%29.83 "Hg10 mi
8:50 PM59 °FSunny.6 mph45%29.83 "Hg10 mi
8:20 PM61 °FSunny.8 mph42%29.83 "Hg10 mi
7:50 PM63 °FSunny.8 mph42%29.83 "Hg10 mi
7:20 PM61 °FSunny.7 mph45%29.83 "Hg10 mi
6:50 PM64 °FSunny.9 mph32%29.83 "Hg10 mi
6:20 PM64 °FSunny.12 mph32%29.83 "Hg10 mi
5:50 PM68 °FPassing clouds.9 mph26%29.83 "HgN/A
5:20 PM68 °FPassing clouds.10 mph24%29.83 "HgN/A
4:50 PM68 °FPassing clouds.12 mph30%29.83 "HgN/A
4:20 PM66 °FSunny.13 mph28%29.86 "Hg10 mi
3:50 PM70 °FSunny.12 mph23%29.86 "Hg10 mi
3:20 PM68 °FPassing clouds.12 mph33%29.86 "HgN/A
2:50 PM68 °FSunny.12 mph28%29.89 "Hg10 mi
2:20 PM66 °FPassing clouds.10 mph30%29.89 "HgN/A
1:50 PM66 °FPassing clouds.13 mph32%29.89 "HgN/A
1:20 PM66 °FPassing clouds.7 mph37%29.89 "HgN/A
12:50 PM64 °FSunny.9 mph43%29.89 "Hg10 mi
12:20 PM63 °FSunny.9 mph45%29.92 "Hg10 mi
11:50 AM63 °FSunny.8 mph49%29.92 "Hg10 mi
11:20 AM61 °FPassing clouds.9 mph48%29.92 "HgN/A
10:50 AM59 °FPassing clouds.6 mph51%29.92 "HgN/A
10:20 AM57 °FPassing clouds.7 mph55%29.92 "HgN/A
9:50 AM55 °FSunny.9 mph59%29.92 "Hg10 mi
9:20 AM54 °FClear.9 mph63%29.95 "Hg6 mi
8:50 AM50 °FClear.9 mph76%29.95 "Hg4 mi
8:20 AM48 °FClear.9 mph76%29.95 "Hg4 mi
7:50 AM45 °FClear.8 mph87%29.95 "Hg4 mi
7:20 AM43 °FClear.8 mph87%29.95 "Hg4 mi
6:50 AM41 °FFog.9 mph87%29.95 "Hg3 mi
6:20 AM43 °FClear.12 mph87%29.95 "Hg4 mi
5:50 AM41 °FClear.8 mph87%29.95 "Hg4 mi
Weather by CustomWeather, © 2015

See weather overviewHow to use our weather pages